Theta_e
308 309 309 309 309 308 308 308 308 310 310 310 312 312 312 311 312 312 313 316 313 314 315 315 317 315 328 356 349 338 343 346 349 349 346 345 342 339 338 340 340 339 338 335 334 336 336 338 338 339 339 338 339 339 339 339 338 338 339 338 337 338 338 337 337 337 337 337 337 337 337 338 337 337 338 338 339 339 338 337 336 336 335 335 334 334
308 310 309 308 310 310 309 309 309 309 309 309 310 311 311 310 311 312 313 314 312 313 315 316 318 313 325 350 346 338 343 346 348 349 347 344 341 340 339 339 340 339 338 336 335 335 336 338 338 338 338 338 338 338 338 339 338 338 339 338 337 337 337 337 337 337 337 337 337 337 337 337 337 338 338 339 339 338 336 336 335 335 334 334 333 333
308 309 309 309 312 312 309 310 309 309 309 309 309 310 312 312 311 311 312 313 312 313 317 316 313 314 330 345 342 339 342 342 344 346 345 343 342 341 339 338 339 339 338 337 336 336 336 337 337 338 338 338 338 338 338 338 338 338 339 338 337 338 338 337 337 337 337 337 337 337 337 337 338 338 339 338 337 336 335 334 334 333 333 332 332 331
309 309 309 310 312 311 309 309 309 309 309 310 309 309 312 313 311 312 313 313 311 313 318 317 315 325 342 346 341 339 342 340 339 342 342 342 342 341 339 338 339 339 339 338 338 337 337 337 337 338 337 338 338 337 337 338 338 338 338 338 338 338 338 338 338 337 337 337 337 337 337 338 338 338 338 337 335 335 334 332 332 332 331 331 330 330
309 309 309 310 311 312 310 308 309 309 309 310 309 309 310 311 311 313 314 315 317 317 317 317 314 323 342 350 347 343 343 341 340 341 342 340 340 340 339 338 337 338 338 339 339 337 337 337 337 338 337 338 338 337 337 338 338 337 338 338 338 338 338 338 338 337 337 337 338 338 338 338 338 337 336 335 333 332 332 331 331 330 330 330 330 329
308 308 309 309 310 311 310 308 308 309 310 310 309 309 309 310 311 311 312 318 321 318 315 314 311 316 337 348 349 345 343 343 340 341 341 339 339 339 340 339 337 337 337 337 338 338 337 337 337 337 337 337 337 337 337 338 337 337 338 338 338 339 339 338 338 338 338 338 338 339 338 337 336 335 335 333 332 331 331 331 330 330 330 330 329 329
307 307 308 309 309 310 311 310 307 308 310 310 310 310 309 310 311 310 311 316 318 316 314 313 311 319 336 344 346 346 344 343 341 340 340 339 339 340 340 339 338 337 336 336 336 337 337 337 337 337 337 337 337 337 338 337 337 337 338 338 338 339 339 339 339 339 339 339 339 339 338 338 336 335 334 333 332 332 330 330 330 329 329 329 329 329
307 308 308 309 309 309 310 310 308 308 309 310 312 311 309 310 310 310 310 312 316 317 315 315 313 316 332 343 345 345 344 343 342 341 341 340 339 339 339 338 337 337 336 336 336 337 337 337 337 337 337 337 336 337 338 337 336 337 338 338 338 339 338 339 339 339 339 339 339 339 338 337 336 335 333 332 332 331 330 329 329 329 329 329 329 328
307 308 307 308 309 309 310 311 309 307 308 310 311 312 311 309 310 311 311 312 315 314 312 317 317 314 330 344 343 344 345 344 344 342 341 342 339 338 338 337 337 336 335 335 335 337 337 337 337 336 336 336 336 337 338 337 337 337 338 339 338 338 338 339 339 339 339 339 339 338 337 336 336 335 333 332 331 330 329 329 328 328 328 329 328 328
307 308 308 307 308 309 310 311 309 307 308 309 310 312 311 310 311 312 312 311 313 313 313 316 316 314 330 346 345 346 348 345 344 342 340 340 339 337 337 337 336 336 335 334 335 336 337 337 336 336 336 336 337 337 338 338 337 337 338 338 338 338 338 339 339 339 339 339 339 337 336 336 335 335 333 331 330 329 329 329 328 328 328 328 328 327
307 309 310 308 308 309 310 311 309 308 309 310 310 310 309 312 313 312 317 315 311 317 316 313 315 315 324 342 348 347 348 346 343 342 339 338 339 337 336 336 337 336 335 335 336 336 336 336 336 336 335 336 337 338 338 338 338 338 338 338 339 338 338 339 339 339 339 339 338 337 336 335 335 334 333 330 329 329 329 328 328 328 328 327 327 326
306 308 310 309 309 310 310 310 309 309 309 309 311 309 310 316 315 310 315 315 312 318 319 314 316 315 317 334 347 344 344 345 343 342 340 338 338 338 336 336 336 336 335 336 337 337 337 336 336 336 336 336 337 338 339 339 338 338 338 338 338 338 339 339 339 339 339 337 334 333 335 336 335 335 333 331 329 329 329 329 328 327 327 326 326 325
307 307 309 310 311 310 309 310 310 309 308 309 311 311 311 315 314 311 313 318 318 318 319 318 316 314 316 329 342 342 342 344 343 341 339 338 338 337 336 336 336 335 336 337 337 337 337 337 337 336 336 337 337 338 339 339 339 338 338 338 338 338 339 339 339 339 339 335 332 332 334 336 336 335 334 332 330 329 329 329 328 327 327 326 325 324
307 308 308 309 311 310 309 310 309 310 308 307 310 311 312 313 312 313 315 318 320 318 318 320 315 315 317 319 329 338 340 341 341 341 339 337 337 337 336 336 336 336 336 338 338 337 337 336 336 335 336 337 337 338 340 339 339 339 338 338 338 338 338 338 339 338 335 334 334 333 334 336 335 335 334 332 330 330 329 328 328 327 326 325 324 323
309 310 310 309 310 310 309 309 310 311 309 307 310 311 313 317 317 318 320 317 317 318 318 315 314 317 316 317 328 334 339 342 342 343 341 338 337 337 336 335 336 337 337 338 338 337 337 336 335 336 337 337 337 338 339 339 339 339 338 339 338 337 337 337 337 335 334 334 335 334 335 336 335 335 333 332 330 330 329 328 327 326 326 324 323 322
308 310 311 309 310 310 309 310 310 312 310 308 311 311 312 318 321 319 323 326 322 317 316 315 319 324 320 325 336 338 343 347 345 344 341 339 338 337 337 336 336 337 337 339 339 337 336 335 335 336 337 338 337 337 339 339 339 339 338 338 338 337 337 336 335 335 334 334 334 334 335 336 335 335 333 331 330 330 329 328 327 326 325 323 322 322
309 312 312 309 310 309 308 311 309 311 313 310 310 311 311 314 317 314 317 325 322 315 320 320 317 321 320 325 339 343 346 346 343 343 341 339 338 337 337 337 336 336 336 338 339 337 336 335 335 338 338 338 337 337 339 340 339 339 338 338 337 337 336 334 333 333 334 334 333 334 335 335 335 334 332 331 330 329 328 327 326 325 323 322 322 321
314 315 315 310 309 310 309 310 309 310 314 312 309 311 312 311 317 322 321 322 321 317 323 322 313 315 318 324 340 346 345 344 341 342 340 338 338 338 338 337 336 336 336 337 338 337 336 336 336 338 339 338 338 337 338 340 339 338 338 338 337 336 335 333 332 332 333 333 333 333 334 334 334 333 331 330 330 328 327 326 325 324 322 321 322 321
313 313 314 311 310 310 308 309 310 311 311 311 312 311 313 315 318 322 322 321 321 317 318 318 316 319 320 328 347 350 344 343 341 340 340 339 339 339 337 336 336 336 336 336 338 338 336 336 337 338 339 339 338 338 339 339 339 338 338 337 337 336 334 333 332 332 332 332 332 333 334 334 333 332 331 330 329 328 327 325 323 322 321 321 322 321
315 315 314 310 310 310 308 310 310 310 310 310 312 309 312 320 319 317 319 321 321 320 323 320 316 320 324 335 354 354 341 340 341 340 341 339 338 338 336 336 336 335 336 336 337 338 337 336 338 338 339 339 339 338 339 339 338 338 337 337 337 335 333 333 332 332 332 332 332 333 333 332 331 330 330 329 328 327 326 324 322 321 321 321 322 321
312 315 315 310 310 310 309 310 310 310 310 309 311 311 310 312 314 316 318 318 318 324 329 324 318 327 337 341 351 353 341 338 341 340 339 338 337 337 335 335 335 335 336 336 337 338 337 336 337 338 338 339 339 338 338 338 337 337 337 336 335 333 332 332 331 331 331 332 332 332 331 330 329 328 329 328 327 326 324 323 321 321 321 321 322 322
311 317 322 315 310 310 310 310 310 309 310 310 311 314 313 311 314 317 315 316 320 324 327 325 324 333 339 335 339 344 339 337 340 338 339 338 336 336 335 335 335 335 336 337 337 338 337 337 337 338 338 338 339 338 337 337 337 336 336 335 334 333 332 331 331 331 331 331 330 330 329 328 328 327 327 326 325 325 323 322 321 321 321 321 322 322
313 315 321 317 310 311 311 311 312 311 310 311 311 313 314 315 317 320 321 322 319 317 321 322 322 333 341 335 335 339 337 338 339 338 339 338 336 336 335 334 335 335 336 337 337 337 337 337 338 338 338 338 338 338 337 336 336 335 335 334 333 332 331 331 331 330 330 330 328 328 328 327 327 326 326 325 324 324 323 321 321 321 322 321 322 322
313 313 314 314 312 311 311 310 311 311 310 310 312 311 312 315 321 331 339 332 318 315 320 315 316 335 349 341 336 337 336 336 337 338 339 337 336 336 334 335 335 335 336 338 338 338 337 337 337 337 337 338 337 337 336 336 335 335 334 333 332 331 330 330 330 329 329 328 328 328 327 326 326 325 324 324 323 322 321 321 321 321 321 321 322 321
315 318 314 313 314 312 312 311 310 310 311 315 319 313 310 316 320 326 331 324 315 319 322 317 320 333 341 338 335 336 337 338 339 339 340 337 335 335 334 334 335 335 337 339 338 338 337 336 337 337 337 338 337 336 336 335 335 334 333 332 331 330 329 329 329 329 328 328 327 326 326 325 325 324 323 323 322 321 320 321 321 321 321 321 321 319
317 321 319 318 318 315 314 314 312 312 312 316 320 313 310 315 314 318 322 316 316 321 319 321 330 334 341 343 338 336 340 342 342 341 340 337 335 335 334 334 334 336 337 339 338 338 337 337 336 336 336 337 336 336 335 335 334 333 332 331 330 329 328 329 329 328 328 327 326 325 325 324 324 323 323 321 320 320 320 321 320 320 320 320 320 318
318 320 322 324 320 317 319 316 313 315 313 313 315 311 312 315 315 321 323 319 324 325 319 329 339 335 341 347 341 339 342 341 342 343 340 338 336 335 334 333 334 335 337 338 339 338 338 337 336 336 336 336 336 336 335 334 332 332 331 329 329 328 328 328 328 327 326 326 325 324 324 323 323 322 321 320 320 320 320 319 318 318 318 319 318 317
314 316 324 325 317 317 322 317 312 314 314 314 315 313 314 319 319 319 321 324 328 321 321 338 342 333 339 348 342 341 342 340 341 341 339 338 336 335 334 334 334 336 337 338 338 338 338 337 336 336 336 336 335 335 334 333 332 331 330 328 327 327 327 328 328 327 325 325 324 323 323 322 322 322 321 319 319 319 318 317 317 317 317 317 317 316
316 318 323 321 316 318 320 316 313 315 315 316 320 318 316 320 320 315 323 336 327 315 325 340 338 337 347 350 341 337 339 339 339 339 339 338 337 336 335 335 335 337 338 338 338 338 337 337 337 336 335 335 335 334 333 332 331 330 329 327 326 325 326 327 327 325 324 324 323 323 322 322 321 321 320 319 319 319 317 316 316 316 316 316 315 315
320 325 326 321 321 323 322 318 314 314 314 314 319 324 322 324 324 320 331 339 325 319 337 342 336 341 345 341 338 337 339 339 338 339 341 339 338 337 336 336 337 338 338 337 337 337 337 336 336 335 335 335 334 333 332 331 329 328 327 326 325 325 325 326 326 324 323 323 322 322 322 321 321 320 319 318 319 318 315 315 315 315 315 315 314 314
319 325 330 331 328 324 325 324 316 314 317 314 318 327 327 324 321 318 326 330 320 323 339 337 333 340 339 336 340 342 342 343 341 340 341 339 337 338 337 337 338 338 337 335 336 336 335 335 335 334 334 334 334 333 331 330 328 327 326 325 324 324 324 324 324 323 322 322 321 321 321 320 320 319 318 318 318 317 314 314 314 314 314 314 313 313
318 322 327 334 331 320 323 327 319 319 321 314 315 323 327 325 321 317 323 328 324 328 336 332 331 339 342 339 342 343 341 342 341 340 339 338 338 338 338 338 338 337 335 335 335 335 334 335 335 335 334 334 333 333 331 329 328 327 325 325 324 323 323 323 323 322 321 321 320 320 320 319 319 318 318 318 317 315 314 313 313 313 312 312 311 311
321 320 319 328 329 318 321 327 322 319 317 315 321 328 326 327 323 318 319 323 326 333 336 332 331 338 343 341 343 344 342 341 341 340 339 338 338 338 339 338 337 335 334 334 334 334 334 334 334 334 334 334 333 332 330 329 327 326 325 324 323 323 322 322 322 321 321 320 320 319 319 318 318 318 317 317 316 314 313 313 312 312 311 310 309 309
321 321 318 330 334 319 319 325 320 317 318 321 331 335 329 326 324 320 319 321 324 328 334 337 337 339 340 342 346 346 343 342 340 338 337 337 337 338 339 338 335 333 334 334 333 332 332 332 333 333 334 334 332 331 330 328 327 325 324 323 322 322 322 321 321 320 320 320 319 319 318 318 317 317 316 316 315 313 312 312 311 311 310 309 308 308
322 323 321 332 337 324 323 327 318 318 326 329 332 331 330 331 331 327 325 326 328 327 330 342 351 347 340 339 341 341 340 340 339 337 338 337 336 338 339 338 334 332 333 334 332 332 331 329 330 332 333 333 332 330 328 327 326 324 323 322 322 321 321 321 320 320 320 319 319 318 318 317 317 317 316 314 313 312 311 311 310 309 308 308 307 307
325 328 326 327 326 323 328 331 324 324 329 331 330 329 327 326 324 322 319 320 328 331 331 340 349 344 337 336 339 339 338 339 339 338 338 337 336 337 338 337 335 332 332 333 331 331 329 327 329 331 332 332 331 329 327 326 324 323 322 321 321 321 321 320 320 319 319 319 318 318 318 317 317 316 315 313 311 310 310 310 309 308 307 306 306 306
325 331 331 327 321 324 332 331 327 326 327 330 331 329 328 323 320 325 323 319 326 332 332 336 337 335 336 338 339 338 338 341 342 339 337 336 336 336 336 336 335 332 331 331 330 329 328 327 329 331 331 331 329 327 326 324 323 322 321 320 321 320 320 319 319 319 319 319 318 318 317 317 317 316 314 311 310 309 309 309 308 307 307 306 305 304
322 326 330 328 321 327 336 331 325 326 327 332 335 332 330 329 328 332 330 323 327 331 332 335 335 334 339 340 336 337 340 345 349 347 340 336 335 335 335 335 334 332 331 329 328 327 327 327 329 330 330 329 327 326 324 323 322 322 321 320 320 319 319 319 318 319 319 318 318 318 317 316 316 315 313 310 309 309 309 308 308 307 306 306 305 304
322 327 335 334 325 330 342 336 326 326 326 329 333 330 329 330 329 326 321 323 332 333 330 333 334 333 338 340 337 338 343 348 354 350 341 335 334 333 334 334 333 331 330 330 328 326 326 327 328 329 329 327 325 324 323 322 322 321 320 320 319 319 319 318 318 318 318 318 318 317 317 316 316 315 312 310 309 309 309 308 307 306 305 305 305 304
324 329 336 334 325 329 341 333 323 325 326 325 327 328 326 323 322 318 319 329 338 336 331 332 335 332 334 337 337 338 344 350 351 345 338 333 331 331 330 332 333 331 329 330 329 327 326 327 327 327 326 325 323 322 322 322 322 321 320 319 319 319 318 318 318 318 318 318 317 317 317 316 314 313 311 309 309 309 309 308 307 305 304 304 304 303
322 326 329 329 325 328 336 329 319 325 329 324 325 329 325 320 318 322 329 334 338 339 334 332 334 333 332 335 337 338 340 341 338 336 334 331 330 330 327 327 329 330 329 329 329 327 326 326 326 327 325 324 322 321 321 322 321 321 320 319 318 318 318 318 318 318 318 317 317 316 316 314 313 313 311 310 309 309 308 308 307 305 303 303 303 303
319 319 321 323 320 321 331 331 322 325 329 324 325 329 325 321 324 331 332 330 332 336 335 332 333 335 334 333 336 339 339 335 329 330 331 331 331 330 327 326 327 329 329 328 328 327 326 325 325 325 324 322 321 321 321 321 321 320 319 318 318 318 318 318 317 317 317 317 316 316 314 313 314 313 312 310 309 308 307 306 306 305 303 302 302 302
318 317 319 318 314 317 328 329 323 327 329 324 326 330 327 326 330 332 331 331 332 334 332 330 332 334 334 334 340 345 342 333 329 330 330 330 330 329 327 327 327 328 327 327 327 326 326 325 324 323 322 320 320 320 320 321 320 319 318 317 317 316 317 317 317 317 317 317 316 315 314 314 314 313 311 309 309 309 307 305 305 304 303 301 300 301
315 319 322 320 318 322 328 324 321 327 329 325 326 330 329 327 327 328 331 333 333 333 331 330 330 331 332 336 343 345 340 333 330 331 330 329 329 328 327 327 326 325 326 326 326 326 325 324 323 321 320 319 319 319 319 320 320 318 316 315 315 316 317 317 317 316 316 316 315 314 314 314 313 311 310 309 308 308 307 305 304 304 302 301 300 300
317 320 325 325 322 323 326 325 324 327 328 326 326 327 327 326 325 327 332 333 332 332 331 331 332 333 333 337 340 340 338 334 331 330 329 328 328 327 326 326 325 324 325 325 326 326 325 324 322 320 318 318 318 318 318 319 319 317 316 315 316 317 317 316 316 316 316 315 314 314 314 313 311 310 310 309 308 308 307 305 304 303 302 301 299 298
319 319 325 329 326 323 325 327 326 326 327 328 327 325 325 327 326 328 332 333 331 331 331 331 333 334 333 335 338 337 335 332 331 329 328 327 326 326 325 324 323 323 324 325 325 324 324 323 320 318 317 317 317 317 317 318 318 317 315 315 316 316 316 315 315 316 314 313 314 314 314 312 310 309 309 308 309 309 308 306 305 303 301 300 299 298
321 321 325 329 328 327 330 330 327 326 327 328 330 329 327 326 325 325 328 329 328 329 329 330 330 330 329 331 334 335 332 328 328 328 326 326 326 326 326 324 322 322 323 324 323 323 322 321 319 317 316 316 316 317 317 317 316 315 315 316 316 315 315 315 315 314 313 313 314 313 312 311 309 308 307 307 307 307 307 306 305 303 301 300 299 298
320 322 327 329 327 328 330 329 327 327 327 327 329 330 328 326 325 323 322 322 324 326 327 327 329 330 330 330 330 330 329 326 326 326 325 325 325 325 324 323 321 321 322 322 322 322 321 320 318 317 316 316 315 316 316 316 315 316 317 317 316 315 315 315 315 314 314 314 313 312 310 309 308 307 306 306 306 306 306 305 304 304 303 302 301 299
321 323 324 326 327 326 326 326 327 329 329 327 326 326 325 323 323 323 322 323 327 330 329 329 329 329 331 331 328 328 329 327 325 325 325 325 325 324 323 320 319 320 321 320 321 321 321 319 318 317 316 316 315 315 316 315 315 316 317 316 315 315 315 315 314 314 313 313 311 310 309 308 308 307 306 305 305 305 305 305 305 305 305 304 302 300
325 326 324 325 330 331 330 329 329 331 331 326 324 324 322 320 321 324 325 326 327 328 330 332 330 327 328 329 326 328 330 327 324 324 324 324 324 323 320 318 319 320 320 319 320 320 320 319 318 317 316 316 315 315 315 315 315 315 316 315 315 315 315 314 312 312 311 310 309 309 308 307 307 306 306 305 304 304 304 304 304 305 304 303 302 299
324 323 323 329 332 330 329 329 328 330 329 322 319 321 320 319 320 323 323 323 323 322 325 331 333 330 329 327 324 325 329 328 324 324 325 323 321 320 319 319 319 319 319 319 319 319 318 318 317 317 316 315 315 315 315 315 315 315 314 314 314 314 314 313 311 310 309 309 308 308 308 307 306 305 305 305 304 304 303 302 301 302 302 302 301 299
Wind_Speed
5 4 7 9 8 9 9 8 6 4 4 7 5 3 4 4 4 4 3 7 3 5 4 7 7 7 7 6 3 5 6 10 13 11 10 10 10 9 9 10 12 11 9 9 12 16 19 22 25 28 30 29 27 26 28 28 26 26 26 24 25 28 29 31 30 28 28 27 26 24 22 20 17 14 12 9 7 6 6 7 10 11 12 12 10 8
5 8 9 7 6 8 8 8 8 7 6 4 4 3 4 4 4 4 4 6 1 3 4 4 6 8 7 6 4 6 8 10 14 13 11 12 11 9 9 10 11 9 6 7 9 13 18 20 24 27 26 27 27 26 27 27 27 27 27 26 27 29 30 32 31 30 28 26 25 23 21 19 16 13 10 8 8 8 10 11 12 13 13 11 9 7
7 8 7 6 5 7 7 8 9 9 8 5 3 3 3 4 3 4 5 4 1 3 4 4 6 7 4 3 5 6 6 7 12 16 16 16 14 11 10 11 11 9 7 8 9 12 17 20 22 24 24 27 29 28 28 27 26 25 25 26 27 29 30 31 31 29 26 24 23 21 19 18 16 12 10 10 11 12 13 13 13 13 12 10 8 6
6 5 7 7 6 7 6 8 10 8 6 5 4 4 3 3 2 2 4 4 1 3 2 4 3 5 3 3 2 5 3 2 5 9 11 13 14 13 11 12 13 13 12 11 9 10 14 18 21 22 24 27 27 26 27 27 26 25 25 26 27 28 29 30 29 27 24 23 21 19 18 17 15 13 13 14 14 15 16 15 14 12 11 9 7 6
4 3 8 8 6 8 6 7 10 7 5 4 4 5 4 3 3 3 3 4 3 2 2 4 2 5 1 3 3 4 0 3 2 2 6 8 9 8 8 10 10 12 13 12 12 11 11 16 20 22 24 25 24 24 26 27 27 26 25 26 26 26 26 27 26 25 24 23 21 19 17 16 15 16 17 19 19 18 17 15 14 12 10 8 7 6
5 4 9 11 8 8 7 6 9 8 5 5 4 6 6 5 5 3 2 3 5 4 2 4 1 6 3 5 6 3 3 5 3 4 8 7 7 8 9 10 10 10 11 10 10 9 9 14 18 20 22 23 22 24 25 26 25 25 24 25 26 25 25 25 25 25 25 24 22 20 19 19 19 20 21 23 22 20 17 15 13 11 9 8 7 7
5 6 8 12 10 9 8 6 7 9 6 4 5 8 8 6 5 3 0 2 3 2 4 3 5 5 4 4 6 4 4 5 4 6 9 7 8 9 9 10 11 10 10 8 7 6 7 13 15 16 19 21 21 22 23 23 23 23 24 25 25 24 24 25 25 24 24 23 22 21 21 20 22 23 21 22 22 19 17 15 13 12 10 9 8 8
7 9 8 12 11 9 9 6 6 9 7 3 5 9 9 8 6 4 3 1 2 2 4 1 4 2 4 5 4 4 4 5 6 9 10 8 8 8 8 9 11 11 10 9 9 9 10 12 14 15 16 18 20 21 22 22 23 24 25 25 25 24 24 24 24 24 23 23 22 22 21 21 23 24 23 22 21 18 17 15 13 12 11 10 9 8
8 12 10 11 12 8 7 5 7 10 6 4 5 9 8 8 7 5 4 3 2 1 5 4 2 2 5 4 2 5 5 6 9 12 13 12 10 10 10 10 11 11 10 8 9 11 11 12 15 15 16 17 20 21 22 23 23 24 25 25 25 25 24 24 24 23 22 21 22 22 22 22 23 24 24 22 20 19 17 16 14 13 12 11 9 8
6 10 9 9 9 7 6 5 7 10 5 4 6 6 4 4 5 5 5 4 1 1 6 7 3 3 4 3 4 4 5 9 10 10 12 13 12 11 11 10 11 10 9 8 8 9 11 14 16 17 18 19 20 21 22 23 24 24 24 25 25 24 24 23 22 22 21 21 22 22 23 24 25 25 25 22 21 20 17 16 15 14 13 11 10 8
4 7 7 6 6 6 7 5 6 9 7 5 6 3 1 1 1 3 3 3 2 2 8 7 6 5 4 4 5 6 10 13 11 8 10 13 13 13 12 11 11 10 8 8 8 8 11 14 17 19 20 20 21 21 22 22 23 24 24 25 24 23 23 22 21 21 20 20 22 23 25 27 27 27 27 24 22 21 19 18 16 15 14 12 10 9
7 5 7 5 6 7 7 6 5 7 7 6 5 4 1 4 2 1 2 2 3 5 7 6 7 7 4 5 7 12 14 10 11 13 15 17 17 14 12 11 10 9 9 9 9 9 10 12 16 19 20 20 22 22 21 22 23 24 25 25 25 23 23 23 22 23 22 21 22 23 25 28 29 29 28 26 24 22 20 19 17 16 14 12 11 9
8 5 4 5 7 9 9 6 5 5 6 6 5 6 4 2 1 3 2 1 4 5 6 4 5 4 6 7 9 16 16 10 12 16 18 19 19 16 13 11 9 8 9 9 9 9 9 9 10 13 15 19 22 22 22 23 23 24 25 25 25 23 23 23 23 24 24 23 23 22 25 27 28 29 28 26 24 22 20 19 18 17 14 13 11 8
4 4 4 7 7 10 11 9 7 6 6 7 6 6 6 4 3 4 3 1 2 5 7 4 3 2 4 5 8 14 18 16 13 11 13 15 15 14 12 11 9 9 10 10 9 10 9 8 10 11 14 17 19 22 23 24 24 24 24 24 25 23 22 23 23 23 23 23 23 23 25 27 28 28 26 24 23 22 20 19 18 16 14 12 9 8
6 4 7 9 6 10 13 10 8 6 6 6 4 6 5 4 5 4 3 3 3 4 5 2 3 4 4 3 6 9 10 8 7 5 7 8 8 9 9 9 9 9 9 8 9 10 10 12 16 19 20 19 19 22 23 23 24 23 23 24 24 22 21 21 22 23 23 22 23 24 26 27 28 27 24 23 22 21 21 20 17 15 13 10 9 13
7 5 6 9 6 11 13 8 7 7 5 4 4 6 5 5 5 1 2 6 5 3 3 2 3 4 4 3 6 2 3 6 8 8 10 10 9 9 10 10 10 9 9 8 9 11 11 15 18 19 20 21 21 23 22 23 24 24 24 24 23 22 21 20 20 22 22 22 23 25 26 27 27 25 23 23 22 21 21 19 17 15 12 11 15 18
6 4 5 10 7 9 13 10 8 7 5 4 4 5 5 5 5 1 2 1 3 4 4 1 2 4 2 3 6 5 5 7 9 10 11 11 12 11 10 10 10 10 10 9 9 11 12 15 17 17 20 22 23 24 23 23 26 26 25 24 23 22 22 21 20 20 21 23 24 25 27 27 26 25 24 24 23 22 21 19 17 14 12 16 20 19
6 3 5 12 11 8 11 12 8 6 6 5 6 7 3 3 2 1 2 1 3 4 4 1 3 3 1 2 5 5 4 6 8 10 11 11 12 12 10 11 11 11 11 9 9 11 11 13 16 18 20 22 23 24 23 23 26 27 26 25 24 24 24 23 22 22 22 23 25 26 27 27 26 25 24 24 24 23 22 19 16 13 15 20 21 17
4 2 5 10 12 6 7 11 7 6 6 6 6 7 5 4 2 1 2 2 2 3 3 1 1 2 3 4 3 2 7 8 8 9 10 12 13 13 11 12 12 11 10 9 9 10 10 12 16 18 20 22 23 24 24 23 25 26 26 25 25 25 23 23 24 24 24 24 26 27 28 27 25 24 24 24 25 24 22 19 16 16 20 22 20 17
0 3 1 7 11 5 4 8 8 7 6 4 4 6 4 4 4 3 2 3 3 3 3 1 2 3 5 6 7 10 11 10 11 11 12 14 15 13 12 12 12 11 10 10 9 10 10 13 16 18 20 22 24 26 26 24 24 26 27 26 25 24 24 25 26 26 26 26 27 28 27 26 25 24 24 25 25 24 21 18 18 20 24 23 19 17
1 2 2 5 8 6 4 7 9 10 8 5 5 5 4 3 3 2 1 2 3 3 3 3 2 5 6 4 9 12 11 12 14 14 14 14 14 13 12 12 12 11 11 10 10 9 9 13 16 18 21 21 23 26 26 25 25 27 27 26 25 25 26 27 27 27 28 28 27 28 27 25 25 25 25 25 24 22 19 18 21 24 24 22 19 17
1 1 2 5 6 6 6 6 8 10 9 7 6 5 5 5 4 3 2 1 2 3 4 4 3 6 6 3 6 9 11 13 15 14 12 12 14 13 12 12 12 12 12 11 10 9 8 13 16 18 21 21 21 25 26 25 27 27 27 27 26 27 28 28 29 29 29 28 27 27 27 26 26 25 25 24 23 21 19 20 23 23 22 20 18 16
2 1 1 3 5 6 6 5 8 10 9 7 5 5 5 5 5 5 5 3 1 2 2 4 3 6 6 3 4 6 8 11 12 11 9 9 12 12 11 12 12 12 11 10 11 9 9 13 17 18 21 21 19 23 25 24 26 28 27 27 28 28 29 29 30 29 29 28 28 27 27 26 25 25 24 23 22 20 19 22 24 21 19 18 16 17
2 1 1 1 1 1 1 2 6 9 8 5 4 5 5 5 5 5 5 4 4 3 2 4 2 6 6 4 4 4 5 5 6 6 6 7 8 9 11 12 12 11 10 10 10 9 9 13 15 15 19 21 18 21 25 24 25 27 27 27 28 29 29 30 29 29 29 28 27 27 26 26 25 24 23 21 19 19 20 23 22 19 17 17 17 20
4 2 1 2 4 4 3 3 4 6 7 5 3 4 6 7 6 4 2 2 3 4 4 5 3 6 5 5 3 4 6 4 3 4 6 8 8 9 10 10 11 11 11 11 11 10 10 11 11 12 16 20 20 20 24 24 24 27 27 27 28 29 30 30 30 29 29 28 27 27 26 25 24 24 22 20 19 20 21 21 19 17 17 18 21 24
4 3 3 4 5 6 6 5 5 6 5 4 4 6 7 9 9 5 2 3 2 4 4 5 4 6 6 6 3 5 8 6 6 6 7 7 8 9 9 10 11 11 11 12 11 11 11 9 10 11 14 18 20 21 22 23 25 27 27 27 29 30 31 30 30 29 29 28 28 27 26 26 25 23 20 19 20 20 18 16 16 17 19 21 24 26
2 2 3 5 6 7 6 5 3 5 6 4 6 7 5 7 9 6 4 4 4 3 2 5 5 4 6 6 2 5 8 8 7 9 9 9 8 8 8 9 10 9 8 10 10 10 10 9 10 13 14 16 20 23 22 22 25 28 27 27 29 31 32 31 31 30 29 29 28 27 27 26 25 22 20 20 20 17 14 15 18 21 24 25 25 25
2 4 4 6 8 8 7 6 5 8 8 6 8 8 4 6 8 7 5 6 5 5 3 7 5 5 6 7 6 8 9 9 9 9 10 9 9 8 8 8 9 8 7 8 9 10 11 12 12 14 17 18 20 23 24 24 26 29 29 27 28 30 32 32 32 30 29 29 28 28 27 26 25 21 19 20 19 14 15 19 22 24 26 25 25 23
1 5 5 4 6 7 6 7 8 9 8 8 9 8 5 7 9 8 7 7 7 6 6 6 6 6 8 7 8 9 8 9 9 8 7 8 9 9 10 10 9 9 8 8 10 11 14 14 12 12 15 17 19 22 24 24 26 28 29 28 28 29 31 33 32 30 29 28 28 27 26 26 25 20 17 19 17 15 19 23 24 25 25 24 23 22
2 5 4 2 3 2 3 6 9 9 8 8 8 8 8 9 9 8 6 6 7 6 5 5 6 6 8 6 6 5 2 4 5 7 8 9 11 11 11 12 10 10 10 10 12 13 13 12 10 10 13 16 19 21 22 23 25 27 29 29 28 28 31 32 32 30 29 28 27 27 26 26 23 18 18 19 18 18 22 24 24 24 24 22 22 21
3 4 3 2 3 3 4 4 8 9 10 8 6 5 8 8 6 3 2 3 4 2 2 6 4 5 6 3 1 1 4 6 7 7 8 9 10 11 11 11 11 11 11 12 14 13 10 11 12 12 14 18 21 23 23 23 25 27 28 29 29 29 30 31 31 29 28 27 26 26 26 25 22 19 19 20 19 21 24 24 24 23 22 21 21 21
2 2 2 3 4 2 4 5 7 8 9 8 5 5 8 8 5 3 3 4 5 5 6 7 3 5 5 1 4 3 5 8 8 8 8 7 9 11 13 13 13 13 14 14 14 12 11 13 14 15 17 20 24 26 26 25 26 27 29 29 29 29 29 30 30 29 27 27 27 27 26 24 21 20 19 20 21 24 25 24 24 23 21 21 21 21
1 1 2 2 4 2 4 4 8 8 8 3 4 7 7 5 4 3 2 3 5 7 8 6 6 5 3 4 4 3 5 7 7 8 8 8 9 10 11 12 13 14 16 15 14 15 14 14 16 19 22 24 26 27 28 29 29 28 29 30 29 29 29 29 28 28 27 27 27 27 26 24 21 20 20 21 24 27 26 25 24 23 22 22 22 22
1 2 1 1 4 0 4 4 8 6 4 5 6 6 6 6 7 6 2 4 5 4 4 5 4 2 5 7 8 9 9 8 8 8 7 8 9 10 10 11 11 13 15 14 14 15 14 12 14 18 22 24 25 25 27 28 28 27 28 30 30 30 29 28 28 27 27 27 27 26 25 24 22 20 21 24 27 28 27 26 24 23 22 23 23 24
1 2 1 1 4 2 2 6 6 4 6 6 5 4 4 5 8 7 2 2 2 1 2 3 5 6 8 6 5 7 7 4 5 5 5 6 8 11 12 11 11 13 14 14 14 14 11 10 12 15 18 22 24 26 26 26 26 27 29 29 30 29 29 29 28 27 27 26 26 26 26 25 23 21 22 26 28 29 28 26 25 24 24 24 24 24
2 3 2 2 3 2 3 5 4 6 6 4 3 2 1 3 6 7 2 4 2 2 2 1 4 6 5 2 3 2 3 5 6 5 4 5 6 9 11 13 14 15 15 14 14 15 14 14 16 16 18 21 24 25 27 27 28 29 28 28 29 30 29 30 29 28 28 28 28 29 28 27 25 23 24 28 29 29 28 27 26 25 25 25 25 24
4 3 3 2 2 3 4 3 1 2 2 3 2 0 1 1 4 6 4 4 4 1 3 2 2 5 6 5 4 4 6 7 4 3 1 5 6 7 9 11 13 15 14 14 16 18 18 17 17 18 18 21 24 25 27 30 30 30 28 27 28 29 30 30 30 30 31 31 32 32 31 30 28 26 27 30 30 30 30 28 27 26 26 26 26 25
3 3 4 3 1 2 5 3 2 2 0 3 5 4 3 4 4 5 6 2 5 3 3 5 6 6 8 7 4 4 6 6 1 5 4 6 7 6 7 7 9 11 12 13 15 15 14 14 16 18 19 21 24 25 28 31 32 32 30 29 28 28 28 29 30 31 32 32 33 33 31 32 32 30 30 32 31 31 31 29 28 27 26 26 27 26
6 3 4 5 3 2 4 4 2 2 2 4 7 6 5 4 2 5 5 2 6 4 2 6 8 7 9 11 8 5 6 5 5 7 6 9 9 8 8 7 6 9 13 16 17 16 17 18 18 19 20 22 24 26 29 32 33 32 30 30 30 29 28 29 31 33 34 34 33 33 31 31 31 31 31 32 32 32 31 29 28 27 26 26 28 27
7 4 4 5 3 2 4 3 1 2 1 3 6 7 6 2 4 7 3 6 6 4 3 6 9 8 8 11 10 7 7 7 7 6 6 9 9 8 9 10 10 11 14 17 18 17 18 20 22 21 22 23 25 28 31 33 34 32 31 31 31 30 30 31 32 33 33 32 32 32 30 28 28 28 29 30 31 31 30 29 28 27 27 27 27 27
4 3 3 4 3 3 4 3 0 2 2 4 7 8 6 3 6 5 5 7 5 4 4 6 9 7 7 10 9 7 7 6 4 3 7 11 10 8 10 12 15 17 18 19 20 19 18 20 22 23 24 26 29 31 33 35 33 30 30 31 30 30 31 32 33 32 32 31 30 29 27 25 25 26 27 29 30 30 29 28 27 27 27 27 27 27
2 2 2 2 3 2 3 4 2 2 3 4 7 8 4 3 3 3 6 4 4 4 3 5 8 8 8 9 7 5 4 2 2 5 9 11 10 9 8 9 11 13 14 16 18 20 20 20 20 21 22 25 30 33 34 34 32 29 29 29 29 29 31 32 33 33 32 32 30 27 24 24 25 27 29 31 31 30 29 28 26 25 25 25 27 26
2 2 1 0 1 2 3 4 2 1 3 4 7 6 3 3 4 6 3 4 5 4 1 4 7 9 9 7 3 1 1 2 3 7 8 8 9 9 8 10 10 11 12 14 16 18 20 20 19 21 22 26 30 32 33 34 31 27 25 22 19 23 28 31 31 31 31 32 30 27 26 26 27 29 33 34 32 31 29 28 26 25 24 25 26 26
1 2 1 1 2 2 3 1 2 4 4 4 3 1 1 2 5 5 2 2 5 4 1 3 5 6 8 7 4 3 3 3 4 7 8 8 8 8 8 9 10 11 14 16 17 18 20 19 19 20 23 27 30 31 32 33 28 22 18 15 16 23 29 31 30 30 29 28 26 25 26 26 27 30 32 33 32 31 29 28 26 24 24 24 25 26
1 2 4 3 1 2 3 3 3 3 5 4 1 3 4 3 3 4 4 3 2 3 1 2 3 4 6 7 5 4 4 3 4 5 7 8 7 7 8 8 10 12 15 16 17 19 20 20 21 21 22 25 28 28 27 28 26 23 20 21 25 30 31 29 28 28 26 23 23 25 26 26 27 29 31 32 32 30 29 28 27 26 25 24 25 26
2 2 2 3 1 0 1 1 2 3 4 4 3 4 2 3 3 2 5 5 2 4 2 1 3 4 6 7 6 4 4 5 5 5 5 7 7 7 7 7 9 12 13 14 15 17 17 18 19 20 19 20 23 23 23 24 26 25 23 23 27 30 29 28 27 26 25 25 27 28 29 29 29 30 32 33 32 30 30 29 28 27 26 25 25 25
2 1 3 4 3 2 1 1 3 3 4 5 5 3 3 6 5 5 5 4 4 4 4 2 2 4 4 4 5 5 5 6 6 6 5 6 7 7 7 7 8 11 13 14 16 18 17 17 17 17 17 18 19 21 23 23 22 20 19 20 24 26 26 27 28 27 26 28 30 30 31 32 32 32 32 32 31 30 30 29 29 28 28 27 26 26
1 2 3 3 3 2 2 4 5 3 4 4 4 4 4 5 6 6 5 4 4 5 6 5 3 5 4 3 4 7 7 5 6 7 6 5 6 6 6 7 9 12 14 15 17 18 17 16 16 16 18 18 20 22 23 21 18 17 18 21 25 26 27 28 29 29 29 30 31 31 30 31 33 33 32 31 30 30 30 29 29 28 27 27 27 27
1 2 2 3 3 3 1 3 3 3 4 6 6 5 5 5 5 7 7 7 8 8 7 7 6 3 4 5 5 7 8 5 5 7 7 6 6 6 6 8 11 13 15 16 18 19 19 18 18 18 18 19 21 23 23 22 21 22 23 25 28 29 30 30 29 30 30 31 31 30 30 30 32 33 32 30 29 29 29 29 29 28 26 26 25 24
2 2 2 4 5 2 3 3 2 3 2 3 5 5 6 5 5 9 9 9 9 8 6 6 7 6 4 4 4 6 8 7 5 6 7 6 6 7 8 10 12 13 15 17 18 18 18 19 20 20 19 19 22 23 23 23 24 24 25 27 29 30 31 29 27 26 27 28 28 29 29 30 29 30 31 32 31 29 28 27 27 26 25 24 22 22
2 2 2 4 5 4 6 5 4 4 3 1 4 5 5 4 8 10 8 7 7 7 6 6 6 5 5 5 3 4 7 7 7 7 6 5 6 9 11 13 14 14 16 18 18 16 16 17 18 19 19 19 21 23 23 23 24 24 25 26 28 29 30 28 26 26 26 26 28 29 30 30 29 30 31 32 32 31 29 26 25 24 23 22 21 20
Wind_Direction
152 180 205 201 202 189 187 175 178 222 161 154 164 176 188 189 249 246 252 271 172 142 219 190 192 219 216 225 193 150 151 151 161 165 167 172 172 173 174 175 177 189 192 176 179 181 183 186 185 185 188 189 188 188 187 186 189 188 184 188 192 192 190 185 181 177 174 171 171 172 175 180 185 193 198 195 196 197 185 170 159 151 146 146 145 144
161 202 214 198 189 175 173 159 163 214 224 174 157 197 219 194 239 252 239 272 218 155 252 186 186 239 226 201 180 157 154 162 167 167 172 178 179 180 175 176 181 187 176 159 175 184 186 188 188 190 190 187 189 190 189 189 189 187 186 189 188 186 185 184 182 179 178 179 180 179 179 184 187 190 190 182 176 172 162 156 153 148 145 146 143 141
198 212 192 175 174 149 153 159 165 201 220 218 192 183 229 219 243 274 264 286 96 165 254 188 185 260 263 169 172 181 178 185 182 177 178 177 178 181 178 179 183 181 174 171 175 183 189 190 189 191 191 190 192 191 189 189 189 187 187 188 186 183 182 182 182 181 180 182 186 188 186 187 184 177 169 165 161 158 154 149 147 147 146 145 139 140
204 206 163 166 165 141 152 170 172 196 212 208 195 177 233 242 189 246 273 294 227 171 184 155 191 286 328 80 166 232 242 192 198 191 181 178 180 182 182 185 184 178 176 177 180 184 186 187 187 190 192 192 192 189 186 187 188 188 189 187 184 183 182 182 181 181 182 182 185 188 187 186 180 167 157 152 148 147 146 143 142 142 142 142 140 143
237 205 155 162 173 160 159 175 178 188 208 208 193 181 211 239 206 209 269 307 337 354 105 114 350 306 270 139 202 247 195 137 174 182 172 183 183 174 180 190 190 185 180 176 179 182 182 185 188 190 190 190 189 186 185 187 188 188 188 186 184 183 183 181 180 181 184 182 180 178 173 171 163 154 152 148 141 142 144 142 140 139 140 143 138 141
253 236 159 163 187 180 169 185 185 175 189 225 211 189 193 209 221 237 317 8 31 351 291 141 214 287 264 201 207 203 151 163 167 175 180 182 175 173 185 192 192 192 189 183 182 184 183 184 186 187 188 187 185 184 184 186 186 184 184 184 184 184 182 181 182 184 186 184 182 176 169 163 152 148 152 151 146 146 147 144 144 142 142 145 139 139
225 231 179 174 186 183 186 204 193 168 164 222 217 191 194 206 211 207 33 61 95 252 273 160 180 261 300 241 220 194 177 177 172 193 195 187 182 187 190 187 187 189 187 187 193 193 186 184 182 183 186 184 182 182 183 183 182 181 182 184 185 184 182 183 184 186 187 185 185 184 179 171 160 154 153 154 152 150 150 148 148 144 140 142 140 136
183 205 198 184 181 187 199 204 186 163 155 215 202 173 187 209 205 179 130 140 209 244 303 351 155 211 279 256 222 172 178 190 193 202 201 197 198 198 195 190 188 189 187 183 186 190 189 190 185 178 178 178 178 180 179 178 178 179 182 184 184 184 185 187 187 188 190 190 189 187 182 174 168 161 154 154 153 151 153 151 146 142 137 136 135 131
174 198 201 185 188 197 193 180 159 154 164 213 172 152 177 200 195 172 160 222 259 15 301 297 124 172 266 272 178 154 184 210 208 205 201 200 202 202 200 197 195 195 192 185 184 187 187 188 184 172 165 170 175 177 177 176 176 180 183 183 183 185 187 189 189 190 193 196 195 188 180 170 166 162 157 155 154 154 157 152 145 143 138 135 134 132
178 195 194 181 196 194 167 166 154 157 184 195 154 135 136 165 178 170 173 204 154 118 252 254 163 178 274 256 173 159 202 218 213 205 202 201 200 201 200 196 198 196 190 188 185 184 182 180 175 164 160 165 171 175 176 175 176 179 181 182 183 186 189 189 189 192 195 199 197 190 180 169 162 160 158 156 155 157 159 151 145 143 139 140 139 135
222 179 184 185 193 172 156 175 162 167 181 154 151 157 65 28 127 146 138 123 116 236 252 236 180 179 261 251 189 186 211 207 193 188 198 204 202 199 197 195 194 190 185 186 180 176 176 170 164 160 160 162 166 172 174 174 175 177 179 181 183 186 189 188 188 192 197 200 198 189 180 172 165 162 160 158 157 158 158 151 146 145 143 143 141 139
256 193 186 170 159 151 157 185 182 182 182 150 149 165 204 317 357 69 28 80 169 244 258 230 177 175 226 250 209 215 226 203 179 188 191 197 200 197 194 191 188 184 180 179 176 172 167 164 163 162 162 161 165 171 172 173 175 176 178 180 182 186 189 188 190 196 200 202 198 187 179 174 169 167 165 163 162 160 158 154 150 148 146 144 144 144
251 237 200 160 161 163 163 177 192 201 188 163 153 149 167 251 265 204 222 178 206 243 259 221 160 180 230 242 216 215 226 212 192 197 191 190 193 190 186 183 180 178 177 178 177 173 171 166 155 155 163 165 167 171 172 173 176 177 179 180 181 184 187 189 194 200 201 201 198 187 180 177 172 171 169 167 166 165 163 160 157 155 152 151 151 149
226 281 229 187 176 172 172 175 188 204 185 171 171 158 166 174 173 208 221 197 224 250 263 230 166 232 259 259 227 212 219 216 202 198 190 187 187 182 178 173 169 172 176 180 176 172 170 154 139 152 174 176 172 174 174 174 176 176 178 180 181 183 187 190 194 198 198 197 195 188 182 178 174 173 173 172 171 169 168 167 164 163 160 157 154 146
187 245 222 196 179 172 183 185 170 159 158 170 154 132 154 163 161 194 198 176 202 254 273 218 164 206 202 255 260 228 221 205 172 154 155 164 169 167 166 164 166 171 176 176 172 171 167 161 164 171 178 179 177 178 177 175 175 174 177 181 182 182 186 190 191 193 193 192 191 187 182 178 176 176 175 176 176 174 171 170 168 165 162 156 144 136
191 241 213 191 188 171 178 186 150 128 144 178 125 123 179 185 155 153 179 173 176 219 259 207 196 220 199 286 320 296 157 133 135 133 135 148 157 157 164 170 170 171 175 175 172 171 168 170 178 178 174 175 179 182 180 175 174 173 176 180 181 181 184 189 192 191 190 189 188 184 181 178 177 178 177 178 179 176 173 173 170 164 157 147 138 134
184 267 215 182 205 190 173 176 175 161 162 167 152 170 196 173 147 147 232 174 105 170 234 245 222 279 291 311 345 34 108 131 141 143 147 156 158 162 172 174 172 173 178 179 171 171 172 174 180 179 173 173 178 182 181 176 176 177 177 176 177 180 184 190 195 193 188 185 183 180 179 178 179 181 182 181 178 174 172 171 167 160 150 144 139 135
156 259 240 181 199 217 172 166 188 187 152 142 183 196 158 122 130 112 198 346 59 172 244 287 199 247 227 240 328 22 117 153 155 153 156 156 158 170 180 176 177 177 176 177 167 168 174 176 179 177 174 174 177 181 181 176 178 180 178 176 177 181 185 189 194 193 188 184 180 178 177 179 183 184 183 182 177 172 170 166 162 158 151 147 143 138
151 197 265 188 189 213 165 161 191 210 171 146 177 182 150 151 202 117 159 182 128 177 234 299 250 238 195 211 268 230 185 177 166 160 160 163 170 178 179 179 181 173 171 175 168 169 175 177 178 175 170 170 173 178 180 176 176 177 177 178 181 185 187 188 189 188 186 182 178 177 178 181 184 183 181 179 174 170 168 164 160 157 153 151 149 144
121 137 236 197 181 166 149 169 188 205 194 152 152 169 157 154 172 173 167 168 164 180 201 230 321 262 229 212 194 201 199 177 168 173 176 179 182 180 176 177 179 174 172 175 174 175 175 173 176 171 165 166 170 173 176 175 172 172 174 177 180 184 186 185 185 183 179 177 176 175 177 179 179 178 177 175 172 169 166 162 158 155 155 155 153 149
327 148 174 193 174 154 175 198 190 185 179 167 167 170 164 150 145 159 177 141 140 156 174 175 227 259 256 211 185 195 193 181 182 183 184 187 183 178 176 173 174 174 174 177 178 174 167 167 172 169 164 165 166 167 172 175 172 170 172 175 177 177 178 178 178 177 175 174 175 174 173 173 173 173 173 171 170 167 164 161 158 156 157 159 157 153
196 198 161 173 180 184 196 196 182 174 168 165 174 176 172 165 134 136 210 243 116 147 171 158 196 261 265 217 202 198 184 188 192 185 184 185 177 175 175 171 172 174 175 177 173 166 161 164 170 168 165 167 166 165 170 174 171 169 170 172 174 173 173 173 172 173 173 172 172 172 170 169 170 171 171 169 168 167 164 164 163 161 162 163 161 159
156 150 181 191 196 203 201 181 166 162 149 143 168 184 170 154 129 137 189 231 156 155 162 126 169 263 261 230 234 216 189 192 195 187 181 176 172 171 169 167 171 174 175 169 162 164 164 162 165 167 168 173 171 166 169 172 169 168 168 169 171 171 171 171 170 171 171 169 169 169 169 169 170 170 170 168 168 171 172 170 168 169 169 168 166 164
172 185 260 247 158 146 351 108 139 148 142 142 178 174 158 170 167 152 169 187 176 183 148 116 198 266 274 281 267 217 183 184 191 177 157 155 165 166 164 167 171 172 170 162 158 162 157 154 161 166 170 176 175 166 168 171 168 165 166 167 169 170 169 169 169 169 168 168 168 169 170 170 170 170 169 169 173 178 177 173 173 175 176 172 167 163
195 201 151 144 132 120 87 81 128 168 172 176 183 162 164 173 162 142 130 126 173 207 163 141 208 253 271 312 310 175 149 138 152 137 135 151 164 166 167 168 169 170 167 162 158 155 152 155 164 169 170 174 175 169 168 171 167 164 166 168 168 168 168 168 169 169 169 169 168 169 170 169 170 171 170 174 177 176 172 172 176 180 178 172 165 163
181 195 141 145 161 163 168 175 181 180 171 160 143 150 169 168 159 165 152 118 202 226 158 149 208 254 286 330 2 148 146 139 145 138 138 156 166 169 170 167 169 173 170 162 154 152 155 159 166 172 172 172 172 169 169 169 165 163 166 168 169 168 167 168 170 169 170 170 168 168 169 170 172 171 172 176 174 169 169 173 177 175 171 169 166 164
80 240 184 168 177 179 187 206 190 134 131 141 137 139 160 163 151 139 120 146 187 175 176 212 204 231 286 306 310 173 165 157 158 156 155 161 167 170 169 168 170 168 160 154 150 149 153 160 170 174 175 175 172 169 169 168 164 163 166 168 169 169 167 168 170 171 171 170 169 168 169 171 171 169 171 175 169 164 168 171 170 167 165 166 167 165
16 287 241 185 187 195 190 190 162 129 136 150 139 136 153 146 131 125 151 192 166 124 264 256 188 184 250 248 218 201 183 172 173 173 167 161 160 159 156 159 161 148 138 141 144 148 159 171 179 180 177 175 171 169 169 169 166 165 167 168 168 168 167 168 170 171 170 170 169 169 170 171 168 166 172 174 166 162 167 167 165 164 163 164 165 163
217 271 251 182 190 204 184 164 150 134 141 149 143 148 154 143 144 157 192 204 161 154 234 230 166 197 244 234 213 208 191 179 175 162 144 141 143 147 152 155 154 146 139 138 146 163 178 183 180 177 176 173 169 167 168 168 167 165 165 168 169 168 168 169 170 170 170 170 170 170 170 169 165 167 177 175 167 166 168 166 165 164 164 164 163 162
191 263 256 173 160 165 138 152 147 133 136 148 153 158 157 158 166 173 193 201 171 170 203 170 161 227 250 235 226 226 154 126 135 126 128 143 149 152 155 154 149 146 144 150 165 179 185 180 169 166 172 173 171 169 167 166 165 164 164 166 168 168 168 168 169 169 169 169 170 169 168 166 165 173 181 175 169 169 169 166 165 165 165 164 163 161
198 243 256 107 96 41 40 115 131 130 139 144 138 130 133 141 147 145 163 178 158 137 113 123 149 262 267 237 181 75 100 112 128 141 145 151 154 153 152 151 150 151 155 167 180 182 177 171 167 169 175 177 175 172 168 166 165 164 164 166 169 169 168 167 167 168 169 169 169 168 166 165 168 175 176 171 169 170 169 167 165 165 164 163 162 160
208 249 319 64 91 17 7 81 102 105 116 123 126 133 132 131 138 170 207 190 165 143 104 106 148 251 256 168 90 94 132 139 147 151 145 151 161 158 155 156 157 159 166 177 183 181 179 178 176 176 178 178 177 173 170 167 165 165 166 167 169 169 167 167 167 167 168 168 166 166 165 166 170 173 170 168 169 171 170 168 165 164 163 161 161 160
168 206 296 67 106 354 343 91 104 91 95 128 206 182 153 133 132 154 237 231 174 144 128 150 206 229 189 139 117 122 142 152 166 167 159 161 164 158 158 160 160 166 174 182 185 187 190 188 184 183 181 178 178 175 171 168 168 168 168 167 168 167 165 166 166 166 165 165 166 167 166 168 172 171 167 168 171 171 170 168 166 164 163 161 161 160
231 147 226 120 120 314 329 74 93 96 142 221 239 198 167 156 150 151 198 229 201 160 141 167 195 185 153 159 171 178 178 178 179 176 168 160 157 155 158 161 163 171 180 185 191 196 197 191 187 187 181 176 174 172 169 169 169 168 167 166 166 165 164 164 165 165 164 164 167 167 167 171 174 170 166 168 171 170 169 168 166 164 163 162 161 160
247 113 126 63 107 145 8 68 94 158 215 243 268 245 209 164 147 143 141 261 215 135 102 135 157 172 180 189 192 185 178 148 118 126 138 152 160 158 157 162 167 176 186 191 196 204 201 187 183 181 175 173 171 167 165 166 165 164 165 165 164 163 164 165 164 165 164 164 167 168 169 174 176 171 168 169 170 170 169 168 165 163 163 162 162 161
182 130 125 54 82 128 74 77 141 215 253 297 321 270 204 99 113 119 71 331 324 114 125 220 203 172 154 31 7 64 100 84 72 65 97 133 158 164 164 169 173 181 191 192 194 203 201 189 183 176 171 170 167 163 163 163 164 164 163 163 163 164 165 165 164 164 165 167 170 171 173 177 179 174 172 170 169 168 168 167 165 164 163 162 160 160
181 139 107 58 68 129 112 94 192 264 329 348 1 54 143 155 150 143 153 283 291 181 156 200 196 140 113 73 59 90 87 76 55 339 215 147 160 178 179 179 180 184 192 192 194 203 203 192 182 175 167 164 163 164 163 162 163 162 160 162 165 166 166 165 165 167 170 173 176 175 176 181 182 177 173 171 169 168 168 167 166 165 164 163 160 158
141 130 132 123 76 88 100 84 38 54 183 254 265 279 286 261 225 147 129 246 278 255 185 165 164 150 123 108 112 119 96 85 105 257 224 169 165 173 176 184 186 184 188 190 189 193 194 183 174 171 166 160 161 164 163 161 162 162 163 167 169 168 167 167 168 171 174 178 180 179 180 184 184 179 173 170 169 168 168 168 167 166 167 166 163 159
60 60 101 99 67 62 98 104 119 149 187 246 260 280 304 283 223 122 110 264 268 260 192 156 166 169 144 136 145 141 118 132 218 239 207 171 167 166 162 167 178 184 190 193 189 183 180 175 169 168 165 160 160 163 163 162 163 165 167 170 171 170 171 172 175 176 178 181 182 181 185 188 184 177 171 169 169 169 169 168 167 167 168 168 165 160
36 20 50 71 69 78 96 97 170 191 215 270 274 296 316 324 103 108 159 254 260 242 208 167 170 180 161 147 149 151 153 175 218 233 183 159 157 159 163 169 175 182 188 192 192 187 178 171 165 162 163 163 163 164 164 165 168 171 173 174 174 175 176 177 179 179 180 183 182 182 188 189 179 171 169 169 169 169 170 169 167 166 167 167 164 161
30 27 60 94 94 77 94 98 52 258 263 285 295 307 319 34 74 101 199 234 251 246 229 177 165 173 169 156 157 175 189 202 230 203 147 145 152 160 170 177 180 185 188 188 188 183 170 166 167 166 168 169 166 165 167 170 174 178 178 177 178 179 179 179 179 180 182 183 182 184 186 180 169 167 172 174 172 170 169 169 168 167 168 166 164 162
42 37 45 81 77 62 106 106 49 290 262 297 312 309 322 85 113 206 230 248 264 257 236 181 166 168 174 173 173 191 210 237 235 166 144 145 155 158 160 168 173 183 190 187 184 176 165 162 166 167 168 169 167 169 171 173 178 182 182 183 184 180 177 178 179 181 182 181 182 183 179 170 168 174 177 176 174 171 168 168 169 169 168 167 167 166
121 105 44 14 135 90 69 71 67 224 250 321 339 338 22 102 187 220 260 305 288 278 230 184 179 171 173 181 186 194 147 84 123 145 139 138 148 149 155 166 167 173 180 178 179 175 165 160 163 165 168 170 170 172 174 177 183 186 183 184 180 168 170 178 181 182 180 180 181 179 173 171 176 179 177 174 174 172 168 167 169 169 170 171 170 168
87 129 144 206 179 113 80 93 193 210 250 310 8 85 211 233 218 199 165 305 300 319 38 169 184 172 167 169 164 146 133 120 135 143 138 139 146 148 155 164 164 167 174 177 178 175 167 163 162 164 168 171 173 175 178 180 183 181 173 169 162 161 172 182 183 180 179 179 177 172 169 174 178 176 174 173 173 171 168 168 169 170 172 175 174 171
313 218 165 146 154 140 148 199 226 240 264 283 244 213 246 281 253 188 142 116 339 333 5 145 166 166 154 150 150 147 147 155 150 138 134 138 141 141 147 159 165 168 172 175 176 174 171 167 165 164 167 171 175 177 179 181 182 179 175 174 171 173 178 180 177 176 178 175 169 167 170 175 176 176 176 175 174 173 170 169 171 171 173 176 176 175
304 303 107 112 125 117 87 44 342 323 304 304 284 251 275 20 18 32 75 72 10 331 352 126 165 172 158 152 153 150 152 152 135 116 120 126 127 129 135 144 156 161 164 166 168 170 170 167 164 163 162 167 172 173 176 185 188 182 175 174 174 177 178 174 171 174 175 170 168 172 176 177 176 177 178 177 177 179 177 175 176 175 175 177 179 179
306 39 72 91 103 94 79 326 313 307 294 303 315 321 13 41 39 39 52 39 351 355 20 44 114 130 132 146 149 137 134 137 129 119 119 122 126 132 133 135 144 154 161 165 167 168 167 162 160 159 156 159 167 171 177 186 184 170 164 171 177 180 179 174 172 174 172 169 171 176 179 176 173 173 174 173 175 177 176 178 179 178 178 180 181 181
312 76 85 95 92 101 197 239 272 300 301 309 338 358 6 25 38 45 49 42 28 28 24 22 64 109 117 125 129 124 123 130 132 129 126 124 126 130 134 142 150 153 158 163 165 165 164 161 162 162 161 162 169 174 178 178 170 166 177 185 185 184 182 179 178 176 174 174 176 176 175 173 171 171 170 170 173 175 175 178 182 184 186 189 190 187
334 47 115 128 89 61 214 238 272 355 4 354 4 8 341 342 32 46 39 36 38 34 29 31 38 62 109 127 131 125 120 123 137 139 135 135 137 137 140 148 151 151 154 158 164 168 168 168 170 170 168 169 172 175 177 176 175 182 190 190 186 183 183 183 182 178 174 173 173 172 172 173 173 172 170 170 173 177 180 184 189 192 195 198 201 201
47 64 117 117 107 144 219 208 172 124 90 349 347 357 334 331 42 53 38 31 32 25 28 46 43 33 50 93 130 138 132 130 141 145 142 145 151 150 148 150 150 151 155 159 163 169 172 174 176 175 173 175 177 179 179 177 178 183 189 189 186 185 184 183 178 172 169 167 167 169 171 172 171 170 171 172 174 175 179 185 192 196 199 200 202 207
92 139 175 142 147 209 223 197 165 133 116 347 329 345 339 1 58 61 45 33 30 19 26 55 59 45 39 39 53 123 139 142 145 145 140 140 150 154 157 160 157 155 158 160 161 164 170 175 177 176 175 179 182 183 181 179 181 185 188 188 188 187 186 180 172 166 166 166 167 170 172 171 170 172 173 174 176 176 176 179 186 193 200 201 202 205